Location: Newark
(7.1028°S, 35.3258°W)
Time: 07:56:37
(UTC+00:00)

Vanguard 3 - Pass Details

Date: 27 February 2020
Orbit: 508 x 3263 km, 33.4° (Epoch: 08 April)

Event Time Altitude Azimuth Distance (km) Brightness Sun altitude
Rises 16:46:36 0° 328° (NNW) 4,928 11.4 57.2°
Reaches altitude 10° 16:49:42 10° 336° (NNW) 4,280 11.1 56.4°
Maximum altitude 17:01:25 41° 42° (NE) 3,440 10.5 53.5°
Drops below altitude 10° 17:18:25 10° 105° (ESE) 6,154 11.3 49.3°
Sets 17:23:54 0° 111° (ESE) 7,234 11.6 47.9°
